STARLINK-11257 [DTC]

Last updated on Mon Oct 21 2024 00:02:04 GMT+0000 (Coordinated Universal Time)

1 61201U 24171B 24294.00209959 -.00012374 00000+0 -71802-4 0 9990 2 61201 53.1540 149.9445 0001286 198.5415 161.5559 15.76700764 4960
UTC large
Height (km)
Speed (km/s)
/
Latitude / Longitude
Inclination (degrees)
Orbital Period (minutes)
Azimuth
Elevation
Range (km)
Doppler Factor

Next 0 passes for location: London (51.5072 / 0.1276)

Sorry there are no passes over London.